Вернуться в каталог

STARLINK-37362

АктивенСвязьVLEO
NORAD 68974·PAYLOAD·🇺🇸 United States

Запущен May 1, 2026 с Cape Canaveral Space Force Station

Loading…

Ближайшие Пролёты (ближайшие 24 часа)

TLE

СвежийSource: CelesTrak SupGP

Эпоха: Sep 14, 2026, 22:54 UTC

1 68974C 26099Z   26257.95465278  .00025576  00000+0  75575-3 0  2571
2 68974  53.1564 101.4769 0001271  86.2852  14.1126 15.34374074    14

Отслеживайте STARLINK-37362 в реальном времени с AllMySat

Download on the App Store